Weather History for South St. Paul, MN

Change the Weather History Date:

Thursday, June 27, 2013

  Actual Average (KMSP) Record (KMSP)
Temperature  
Mean Temperature 80 °F 72 °F  
Max Temperature 88 °F 82 °F 104 °F (1934)
Min Temperature 72 °F 62 °F 44 °F (1925)
Degree Days  
Heating Degree Days 0 0  
Month to date heating degree days 44  
Since 1 June heating degree days 44  
Since 1 July heating degree days 7580  
Cooling Degree Days 15 8  
Month to date cooling degree days 135  
Year to date cooling degree days 177  
Since 1 June cooling degree days 135  
Growing Degree Days 30 (Base 50)    
Moisture  
Dew Point 58 °F    
Average Humidity 49    
Maximum Humidity 75    
Minimum Humidity 26    
Precipitation  
Precipitation 0.00 in 0.15 in 2.00 in (1953)
Month to date precipitation 3.82  
Year to date precipitation 13.40  
Snow  
Snow 0.00 in 0.00 in 0.00 in ()
Month to date snowfall 0.0  
Since 1 June snowfall 0.0  
Since 1 July snowfall 54.4  
Snow Depth -    
Sea Level Pressure  
Sea Level Pressure 29.80 in    
Wind  
Wind Speed 8 mph (WNW)    
Max Wind Speed 21 mph    
Max Gust Speed 33 mph    
Visibility 10 miles    
Events      
T = Trace of Precipitation, MM = Missing Value Source: NWS Daily Summary

Daily Weather History Graph

Daily Weather History Graph

Search for Another Location

Airport:

Trip Planner

Search our weather history database for the weather conditions in past years. The results will help you decide how hot, cold, wet, or windy it might be!

Date:

Astronomy

Jun. 27, 2013 Rise Set
Actual Time 5:27 AM CDT 9:02 PM CDT
Civil Twilight 4:50 AM CDT 9:39 PM CDT
Nautical Twilight 4:01 AM CDT 10:28 PM CDT
Astronomical Twilight 2:56 AM CDT 11:33 PM CDT
Moon 11:44 PM CDT (6/27) 10:43 AM CDT (6/27)
Length of Visible Light 16h 48m
Length of Day
15h 34m
Waning Gibbous, 76% of the Moon is Illuminated
Jun 27
Waning Gibbous
Jun 29
Last Quarter
Jul 8
New
Jul 15
First Quarter
Jul 22
Full

Hourly Weather History & Observations

Time (CDT) Temp. Heat Index Dew Point Humidity Pressure Visibility Wind Dir Wind Speed Gust Speed Precip Events Conditions
12:14 AM 77.2 °F - 63.7 °F 63% 29.81 in 10.0 mi West 5.8 mph - N/A   Clear
12:34 AM 77.4 °F - 63.1 °F 61% 29.81 in 10.0 mi West 5.8 mph - N/A   Clear
12:53 AM 76.3 °F - 63.5 °F 64% 29.81 in 10.0 mi West 5.8 mph - N/A   Clear
1:14 AM 76.1 °F - 63.1 °F 64% 29.81 in 10.0 mi West 3.5 mph - N/A   Clear
1:34 AM 74.7 °F - 63.5 °F 68% 29.80 in 10.0 mi Calm Calm - N/A   Clear
1:54 AM 74.3 °F - 63.5 °F 69% 29.80 in 10.0 mi Calm Calm - N/A   Clear
2:14 AM 73.8 °F - 63.7 °F 71% 29.81 in 10.0 mi Calm Calm - N/A   Clear
2:34 AM 73.4 °F - 63.9 °F 72% 29.80 in 10.0 mi Calm Calm - N/A   Clear
2:54 AM 73.4 °F - 63.9 °F 72% 29.80 in 10.0 mi Calm Calm - N/A   Clear
3:14 AM 73.2 °F - 64.0 °F 73% 29.80 in 10.0 mi West 3.5 mph - N/A   Scattered Clouds
3:33 AM 72.7 °F - 64.4 °F 75% 29.80 in 10.0 mi Calm Calm - N/A   Mostly Cloudy
3:54 AM 72.9 °F - 64.4 °F 75% 29.80 in 10.0 mi Calm Calm - N/A   Scattered Clouds
4:14 AM 73.4 °F - 64.6 °F 74% 29.80 in 10.0 mi Calm Calm - N/A   Scattered Clouds
4:34 AM 73.8 °F - 64.6 °F 73% 29.80 in 10.0 mi WSW 4.6 mph - N/A   Mostly Cloudy
4:54 AM 73.8 °F - 64.6 °F 73% 29.80 in 10.0 mi West 4.6 mph - N/A   Mostly Cloudy
5:14 AM 74.3 °F - 64.6 °F 72% 29.80 in 10.0 mi West 5.8 mph - N/A   Mostly Cloudy
5:34 AM 73.8 °F - 64.4 °F 72% 29.81 in 10.0 mi West 5.8 mph - N/A   Scattered Clouds
5:54 AM 73.8 °F - 64.6 °F 73% 29.81 in 10.0 mi West 8.1 mph - N/A   Scattered Clouds
6:13 AM 73.8 °F - 64.6 °F 73% 29.81 in 10.0 mi West 8.1 mph - N/A   Clear
6:34 AM 74.3 °F - 64.8 °F 72% 29.81 in 10.0 mi West 8.1 mph - N/A   Scattered Clouds
6:54 AM 75.2 °F - 64.9 °F 70% 29.81 in 10.0 mi West 8.1 mph - N/A   Scattered Clouds
7:14 AM 76.1 °F - 64.8 °F 68% 29.81 in 10.0 mi West 8.1 mph - N/A   Clear
7:34 AM 77.0 °F - 65.1 °F 67% 29.81 in 10.0 mi West 6.9 mph - N/A   Clear
7:53 AM 77.9 °F - 65.1 °F 65% 29.80 in 10.0 mi West 8.1 mph - N/A   Clear
8:14 AM 78.8 °F - 65.1 °F 63% 29.81 in 10.0 mi West 6.9 mph - N/A   Clear
8:34 AM 79.7 °F - 64.6 °F 60% 29.80 in 10.0 mi West 9.2 mph - N/A   Clear
8:54 AM 80.2 °F 81.9 °F 64.2 °F 58% 29.80 in 10.0 mi WNW 8.1 mph - N/A   Clear
9:14 AM 81.0 °F 82.6 °F 64.6 °F 57% 29.80 in 10.0 mi West 8.1 mph - N/A   Clear
9:33 AM 80.8 °F 82.4 °F 64.0 °F 57% 29.80 in 10.0 mi West 9.2 mph - N/A   Clear
9:54 AM 81.7 °F 83.2 °F 63.9 °F 55% 29.80 in 10.0 mi West 8.1 mph - N/A   Clear
10:14 AM 82.8 °F 83.6 °F 62.6 °F 50% 29.80 in 10.0 mi WNW 11.5 mph 16.1 mph N/A   Clear
10:34 AM 84.0 °F 84.4 °F 61.2 °F 46% 29.80 in 10.0 mi WNW 11.5 mph 16.1 mph N/A   Clear
10:54 AM 84.6 °F 84.2 °F 59.2 °F 42% 29.80 in 10.0 mi NW 12.7 mph 19.6 mph N/A   Clear
11:13 AM 85.3 °F 84.6 °F 58.5 °F 40% 29.80 in 10.0 mi NW 13.8 mph 19.6 mph N/A   Clear
11:34 AM 85.5 °F 84.6 °F 57.6 °F 39% 29.80 in 10.0 mi NNW 11.5 mph 20.7 mph N/A   Clear
11:54 AM 86.0 °F 84.7 °F 56.5 °F 36% 29.80 in 10.0 mi WNW 12.7 mph 19.6 mph N/A   Clear
12:14 PM 86.7 °F 85.1 °F 55.0 °F 34% 29.80 in 10.0 mi WNW 17.3 mph 23.0 mph N/A   Clear
12:34 PM 86.4 °F 84.9 °F 55.6 °F 35% 29.80 in 10.0 mi WNW 18.4 mph 23.0 mph N/A   Clear
12:53 PM 86.9 °F 84.9 °F 53.6 °F 32% 29.80 in 10.0 mi WNW 15.0 mph 25.3 mph N/A   Clear
1:14 PM 86.9 °F 85.1 °F 54.5 °F 33% 29.80 in 10.0 mi WNW 13.8 mph 21.9 mph N/A   Clear
1:34 PM 86.9 °F 84.8 °F 53.1 °F 31% 29.80 in 10.0 mi WNW 15.0 mph 23.0 mph N/A   Clear
1:54 PM 87.4 °F - 50.5 °F 28% 29.80 in 10.0 mi WNW 15.0 mph 25.3 mph N/A   Scattered Clouds
2:14 PM 88.0 °F - 51.4 °F 28% 29.80 in 10.0 mi WNW 15.0 mph 25.3 mph N/A   Clear
2:34 PM 88.0 °F - 50.2 °F 27% 29.80 in 10.0 mi NW 16.1 mph 21.9 mph N/A   Clear
2:54 PM 88.5 °F - 49.1 °F 26% 29.80 in 10.0 mi NW 19.6 mph 26.5 mph N/A   Clear
3:14 PM 88.3 °F - 49.3 °F 26% 29.80 in 10.0 mi WNW 17.3 mph 26.5 mph N/A   Clear
3:34 PM 88.2 °F - 48.7 °F 26% 29.80 in 10.0 mi WNW 16.1 mph 26.5 mph N/A   Clear
3:54 PM 88.0 °F - 49.3 °F 26% 29.80 in 10.0 mi NW 19.6 mph 33.4 mph N/A   Clear
4:14 PM 88.0 °F - 50.0 °F 27% 29.80 in 10.0 mi WNW 17.3 mph 27.6 mph N/A   Clear
4:34 PM 88.3 °F - 50.0 °F 27% 29.80 in 10.0 mi WNW 15.0 mph 29.9 mph N/A   Clear
4:54 PM 87.4 °F - 48.7 °F 26% 29.80 in 10.0 mi WNW 16.1 mph 28.8 mph N/A   Clear
5:14 PM 87.1 °F - 48.6 °F 26% 29.80 in 10.0 mi WNW 20.7 mph 27.6 mph N/A   Clear
5:34 PM 86.4 °F - 50.0 °F 28% 29.80 in 10.0 mi NW 16.1 mph 33.4 mph N/A   Clear
5:53 PM 86.5 °F - 49.6 °F 28% 29.80 in 10.0 mi WNW 19.6 mph 27.6 mph N/A   Clear
6:14 PM 86.2 °F - 50.7 °F 29% 29.79 in 10.0 mi WNW 12.7 mph 27.6 mph N/A   Clear
6:34 PM 85.8 °F - 50.4 °F 29% 29.79 in 10.0 mi WNW 17.3 mph 25.3 mph N/A   Clear
6:54 PM 85.5 °F - 51.1 °F 30% 29.79 in 10.0 mi WNW 15.0 mph 21.9 mph N/A   Clear
7:14 PM 85.1 °F - 51.8 °F 32% 29.80 in 10.0 mi WNW 12.7 mph 20.7 mph N/A   Clear
7:33 PM 84.7 °F - 50.5 °F 31% 29.80 in 10.0 mi WNW 16.1 mph 21.9 mph N/A   Clear
7:54 PM 84.2 °F - 51.6 °F 32% 29.79 in 10.0 mi WNW 13.8 mph 20.7 mph N/A   Clear
8:14 PM 83.3 °F - 52.7 °F 35% 29.79 in 10.0 mi NW 9.2 mph 17.3 mph N/A   Clear
8:33 PM 82.9 °F 81.8 °F 53.8 °F 36% 29.79 in 10.0 mi WNW 6.9 mph - N/A   Scattered Clouds
8:54 PM 82.2 °F 81.4 °F 54.0 °F 38% 29.79 in 10.0 mi WNW 4.6 mph - N/A   Clear
9:14 PM 81.7 °F 81.1 °F 54.1 °F 39% 29.78 in 10.0 mi WNW 4.6 mph - N/A   Clear
9:34 PM 80.6 °F 80.4 °F 54.9 °F 41% 29.78 in 10.0 mi West 3.5 mph - N/A   Clear
9:54 PM 78.6 °F - 56.3 °F 46% 29.78 in 10.0 mi West 4.6 mph - N/A   Clear
10:14 PM 78.1 °F - 56.7 °F 48% 29.78 in 10.0 mi West 4.6 mph - N/A   Clear
10:34 PM 77.9 °F - 57.0 °F 48% 29.78 in 10.0 mi West 5.8 mph - N/A   Clear
10:54 PM 78.4 °F - 57.0 °F 48% 29.78 in 10.0 mi West 6.9 mph - N/A   Clear
11:13 PM 78.6 °F - 57.2 °F 48% 29.78 in 10.0 mi WNW 8.1 mph - N/A   Clear
11:34 PM 78.4 °F - 56.1 °F 46% 29.78 in 10.0 mi WNW 9.2 mph - N/A   Clear
11:54 PM 79.5 °F - 54.5 °F 42% 29.78 in 10.0 mi NW 11.5 mph - N/A   Clear